VK2CZZ Weather Reports


time (UTC)temp
C
wind
direction
speed
KPH
gust
KPH
rain 1hr
cm
rain 24hr
cm
rain mn
cm
humidity
%
barometer
mb
20260505000021 18 224 0.0 0.0 0.10 3.51 0.41 73 1020.7
20260504235033 18 207 0.0 0.0 0.10 3.51 0.41 76 1020.6
20260504234022 18 205 0.0 0.0 0.10 3.51 0.41 77 1020.3
20260504233020 17 214 0.0 0.0 0.10 3.51 0.41 79 1020.5
20260504232037 17 212 0.0 0.0 0.10 3.51 0.41 80 1020.5
20260504231035 17 213 0.0 0.0 0.10 3.51 0.41 82 1020.7
20260504230056 17 360 0.0 0.0 0.00 3.40 0.38 85 1020.7
20260504225030 17 203 0.0 0.0 0.00 3.40 0.38 87 1020.5
20260504224045 17 209 0.0 0.0 0.00 3.40 0.38 93 1020.3
20260504223039 17 207 0.0 0.0 0.00 3.40 0.38 94 1020.1
20260504222019 17 219 0.0 0.0 0.00 3.40 0.38 96 1020.0
20260504221033 17 215 0.0 0.0 0.00 3.40 0.38 96 1019.9
20260504220030 17 222 0.0 0.0 0.00 3.40 0.38 96 1019.7
20260504215021 17 224 0.0 0.0 0.00 3.40 0.38 96 1019.5
20260504214039 17 223 0.0 0.0 0.00 3.40 0.38 96 1019.3
20260504213032 17 226 0.0 0.0 0.00 3.40 0.38 96 1019.1
20260504212026 17 226 0.0 0.0 0.00 3.40 0.38 96 1018.9
20260504211020 17 228 0.0 0.0 0.00 3.40 0.38 96 1018.7
20260504210036 17 231 0.0 0.0 0.00 3.40 0.38 96 1018.4
20260504205030 17 232 0.0 0.0 0.00 3.40 0.38 96 1018.7
20260504204023 17 236 0.0 0.0 0.00 3.40 0.38 96 1018.5
20260504203018 17 242 0.0 0.0 0.00 3.40 0.38 96 1018.3
20260504202033 17 253 0.0 0.0 0.00 3.40 0.38 96 1018.1
20260504201026 17 255 0.0 0.0 0.00 3.40 0.38 96 1017.9
20260504200019 17 255 0.0 0.0 0.00 3.40 0.38 96 1017.9
20260504195037 17 256 0.0 0.0 0.00 3.40 0.38 96 1017.8
20260504194054 17 267 0.0 0.0 0.00 3.40 0.38 96 1017.7
20260504193050 17 260 0.0 0.0 0.00 3.40 0.38 96 1017.5
20260504192048 17 267 0.0 0.0 0.00 3.40 0.38 96 1017.3
20260504191020 17 259 0.0 0.0 0.00 3.40 0.38 96 1017.3
20260504190037 17 268 0.0 0.0 0.00 3.40 0.38 96 1017.2
20260504185055 17 261 0.0 0.0 0.00 3.40 0.38 96 1017.1
20260504184027 17 262 0.0 0.0 0.00 3.40 0.38 96 1017.1
20260504183023 17 263 0.0 0.0 0.00 3.40 0.38 96 1017.1
20260504182039 17 265 0.0 0.0 0.00 3.40 0.38 96 1016.9
20260504181030 17 265 0.0 0.0 0.00 3.40 0.38 96 1016.7
20260504180024 17 265 0.0 0.0 0.00 3.40 0.38 96 1016.9
20260504175039 17 265 0.0 0.0 0.00 3.40 0.38 96 1017.0
20260504174034 17 265 0.0 0.0 0.10 3.40 0.38 96 1017.1
20260504173027 17 265 0.0 0.0 0.30 3.40 0.38 96 1016.8
20260504172043 17 265 0.0 0.0 0.79 3.40 0.38 96 1016.9
20260504171035 17 265 0.0 0.0 1.19 3.40 0.38 96 1017.0
20260504151020 18 263 0.0 0.0 0.00 1.50 0.00 95 1016.5
20260504141035 18 275 0.0 0.0 0.51 1.50 0.30 95 1016.4
20260504081027 21 63 0.0 0.0 0.00 0.00 0.00 88 1016.7
20260504045042 26 44 0.0 0.0 0.00 0.00 0.00 59 1015.6
20260504044019 26 44 0.0 0.0 0.00 0.00 0.00 55 1015.6
20260504043037 26 43 0.0 0.0 0.00 0.00 0.00 54 1015.7
20260504042029 26 43 0.0 0.0 0.00 0.00 0.00 52 1015.9
20260504041025 26 43 0.0 0.0 0.00 0.00 0.00 54 1016.0
20260504040021 26 43 0.0 0.0 0.00 0.00 0.00 54 1016.1
20260504035032 27 43 0.0 0.0 0.00 0.00 0.00 52 1016.1
20260504034025 27 44 0.0 0.0 0.00 0.00 0.00 52 1016.2
20260504033042 27 350 0.0 0.0 0.00 0.00 0.00 51 1016.3
20260504032038 28 350 0.0 0.0 0.00 0.00 0.00 51 1016.5
20260504031037 27 350 0.0 0.0 0.00 0.00 0.00 51 1016.6
20260504030030 27 351 0.0 0.0 0.00 0.00 0.00 51 1016.8
20260504025022 27 351 0.0 0.0 0.00 0.00 0.00 51 1016.8
20260504024041 27 351 0.0 0.0 0.00 0.00 0.00 52 1016.9
20260504023035 27 350 0.0 0.0 0.00 0.00 0.00 53 1017.1
20260504022032 27 351 0.0 0.0 0.00 0.00 0.00 54 1017.2
20260504021027 26 355 0.0 0.0 0.00 0.00 0.00 55 1017.3
20260504020025 27 355 0.0 0.0 0.00 0.00 0.00 54 1017.6
20260504015019 27 355 0.0 0.0 0.00 0.00 0.00 54 1017.7
20260504014100 27 355 0.0 0.0 0.00 0.00 0.00 55 1018.0
20260504013036 26 355 0.0 0.0 0.00 0.00 0.00 56 1018.1
20260504012031 26 355 0.0 0.0 0.00 0.00 0.00 58 1018.3
20260504011023 26 9 0.0 0.0 0.00 0.00 0.00 60 1018.3
20260504010018 25 360 0.0 0.0 0.00 0.00 0.00 62 1018.4
20260504005034 25 360 0.0 0.0 0.00 0.00 0.00 64 1018.5
20260504004030 24 350 0.0 0.0 0.00 0.00 0.00 67 1018.6
20260504003024 24 355 0.0 0.0 0.00 0.00 0.00 65 1018.6
20260504002019 24 351 0.0 0.0 0.00 0.00 0.00 66 1018.7
20260504001035 24 5 0.0 0.0 0.00 0.00 0.00 67 1018.7